owner,sensor,date,latitude,longitude,vertical_datum,sea_water_practical_salinity,qcFlag 
TCOON,ioos:station:TCOON:042:1,2012-10-01T00:00:00Z,27.8888,-97.5696,0.0,16.2,1111122 
TCOON,ioos:station:TCOON:042:1,2012-10-01T00:30:00Z,27.8888,-97.5696,0.0,16.3,1111122 
TCOON,ioos:station:TCOON:042:1,2012-10-01T01:00:00Z,27.8888,-97.5696,0.0,16.8,1111122 
TCOON,ioos:station:TCOON:042:1,2012-10-01T01:30:00Z,27.8888,-97.5696,0.0,17.1,1111122 
TCOON,ioos:station:TCOON:042:1,2012-10-01T02:00:00Z,27.8888,-97.5696,0.0,16.5,1111122 
TCOON,ioos:station:TCOON:042:1,2012-10-01T02:30:00Z,27.8888,-97.5696,0.0,15.5,1111122 
TCOON,ioos:station:TCOON:042:1,2012-10-01T03:00:00Z,27.8888,-97.5696,0.0,16.2,1111122 
TCOON,ioos:station:TCOON:042:1,2012-10-01T03:30:00Z,27.8888,-97.5696,0.0,15.5,1111122 
TCOON,ioos:station:TCOON:042:1,2012-10-01T04:00:00Z,27.8888,-97.5696,0.0,16.0,1111122 
TCOON,ioos:station:TCOON:042:1,2012-10-01T05:00:00Z,27.8888,-97.5696,0.0,16.0,1111122 
TCOON,ioos:station:TCOON:042:1,2012-10-01T06:00:00Z,27.8888,-97.5696,0.0,15.0,1111122 
TCOON,ioos:station:TCOON:042:1,2012-10-01T06:30:00Z,27.8888,-97.5696,0.0,15.1,1111122 
TCOON,ioos:station:TCOON:042:1,2012-10-01T08:30:00Z,27.8888,-97.5696,0.0,14.9,1111122 
TCOON,ioos:station:TCOON:042:1,2012-10-01T09:00:00Z,27.8888,-97.5696,0.0,14.2,1111122 
TCOON,ioos:station:TCOON:042:1,2012-10-01T09:30:00Z,27.8888,-97.5696,0.0,14.6,1111122 
TCOON,ioos:station:TCOON:042:1,2012-10-01T10:00:00Z,27.8888,-97.5696,0.0,14.1,1111122 
TCOON,ioos:station:TCOON:042:1,2012-10-01T10:30:00Z,27.8888,-97.5696,0.0,13.7,1111122 
TCOON,ioos:station:TCOON:042:1,2012-10-01T11:00:00Z,27.8888,-97.5696,0.0,13.0,1111122 
TCOON,ioos:station:TCOON:042:1,2012-10-01T12:30:00Z,27.8888,-97.5696,0.0,11.9,1111122 
TCOON,ioos:station:TCOON:042:1,2012-10-01T13:00:00Z,27.8888,-97.5696,0.0,12.2,1111122 
TCOON,ioos:station:TCOON:042:1,2012-10-01T13:30:00Z,27.8888,-97.5696,0.0,11.9,1111122 
TCOON,ioos:station:TCOON:042:1,2012-10-01T14:00:00Z,27.8888,-97.5696,0.0,11.3,1111122 
TCOON,ioos:station:TCOON:042:1,2012-10-01T15:00:00Z,27.8888,-97.5696,0.0,10.5,1111122 
TCOON,ioos:station:TCOON:042:1,2012-10-01T15:30:00Z,27.8888,-97.5696,0.0,10.7,1111122 
TCOON,ioos:station:TCOON:042:1,2012-10-01T16:00:00Z,27.8888,-97.5696,0.0,10.9,1111122 
TCOON,ioos:station:TCOON:042:1,2012-10-01T16:30:00Z,27.8888,-97.5696,0.0,11.0,1111122 
TCOON,ioos:station:TCOON:042:1,2012-10-01T17:00:00Z,27.8888,-97.5696,0.0,11.1,1111122 
TCOON,ioos:station:TCOON:042:1,2012-10-01T17:30:00Z,27.8888,-97.5696,0.0,11.0,1111122 
TCOON,ioos:station:TCOON:042:1,2012-10-01T18:00:00Z,27.8888,-97.5696,0.0,11.2,1111122 
TCOON,ioos:station:TCOON:042:1,2012-10-01T19:00:00Z,27.8888,-97.5696,0.0,10.8,1111122 
TCOON,ioos:station:TCOON:042:1,2012-10-01T19:30:00Z,27.8888,-97.5696,0.0,11.2,1111122 
TCOON,ioos:station:TCOON:042:1,2012-10-01T20:00:00Z,27.8888,-97.5696,0.0,11.2,1111122 
TCOON,ioos:station:TCOON:042:1,2012-10-01T20:30:00Z,27.8888,-97.5696,0.0,11.3,1111122 
TCOON,ioos:station:TCOON:042:1,2012-10-01T23:30:00Z,27.8888,-97.5696,0.0,10.7,1111122 
TCOON,ioos:station:TCOON:042:1,2012-10-02T01:30:00Z,27.8888,-97.5696,0.0,10.5,1111122 
TCOON,ioos:station:TCOON:042:1,2012-10-02T02:00:00Z,27.8888,-97.5696,0.0,10.6,1111122 
TCOON,ioos:station:TCOON:042:1,2012-10-02T02:30:00Z,27.8888,-97.5696,0.0,10.5,1111122 
TCOON,ioos:station:TCOON:042:1,2012-10-02T03:00:00Z,27.8888,-97.5696,0.0,10.1,1111122 
TCOON,ioos:station:TCOON:042:1,2012-10-02T04:00:00Z,27.8888,-97.5696,0.0,10.2,1111122 
TCOON,ioos:station:TCOON:042:1,2012-10-02T04:30:00Z,27.8888,-97.5696,0.0,9.6,1111122 
TCOON,ioos:station:TCOON:042:1,2012-10-02T05:00:00Z,27.8888,-97.5696,0.0,9.4,1111122 
TCOON,ioos:station:TCOON:042:1,2012-10-02T05:30:00Z,27.8888,-97.5696,0.0,8.7,1111122 
TCOON,ioos:station:TCOON:042:1,2012-10-02T06:00:00Z,27.8888,-97.5696,0.0,8.2,1111122 
TCOON,ioos:station:TCOON:042:1,2012-10-02T06:30:00Z,27.8888,-97.5696,0.0,8.1,1111122 
TCOON,ioos:station:TCOON:042:1,2012-10-02T07:00:00Z,27.8888,-97.5696,0.0,7.7,1111122 
TCOON,ioos:station:TCOON:042:1,2012-10-02T07:30:00Z,27.8888,-97.5696,0.0,7.5,1111122 
TCOON,ioos:station:TCOON:042:1,2012-10-02T08:00:00Z,27.8888,-97.5696,0.0,7.1,1111122 
TCOON,ioos:station:TCOON:042:1,2012-10-02T08:30:00Z,27.8888,-97.5696,0.0,7.2,1111122 
TCOON,ioos:station:TCOON:042:1,2012-10-02T09:00:00Z,27.8888,-97.5696,0.0,6.7,1111122 
TCOON,ioos:station:TCOON:042:1,2012-10-02T09:30:00Z,27.8888,-97.5696,0.0,6.8,1111122 
TCOON,ioos:station:TCOON:042:1,2012-10-02T10:00:00Z,27.8888,-97.5696,0.0,6.9,1111122 
TCOON,ioos:station:TCOON:042:1,2012-10-02T10:30:00Z,27.8888,-97.5696,0.0,6.7,1111122 
TCOON,ioos:station:TCOON:042:1,2012-10-02T11:00:00Z,27.8888,-97.5696,0.0,6.5,1111122 
TCOON,ioos:station:TCOON:042:1,2012-10-02T11:30:00Z,27.8888,-97.5696,0.0,6.4,1111122 
TCOON,ioos:station:TCOON:042:1,2012-10-02T12:00:00Z,27.8888,-97.5696,0.0,6.4,1111122 
TCOON,ioos:station:TCOON:042:1,2012-10-02T12:30:00Z,27.8888,-97.5696,0.0,6.8,1111122 
TCOON,ioos:station:TCOON:042:1,2012-10-02T13:00:00Z,27.8888,-97.5696,0.0,6.7,1111122 
TCOON,ioos:station:TCOON:042:1,2012-10-02T13:30:00Z,27.8888,-97.5696,0.0,6.8,1111122 
TCOON,ioos:station:TCOON:042:1,2012-10-02T14:00:00Z,27.8888,-97.5696,0.0,7.1,1111122 
TCOON,ioos:station:TCOON:042:1,2012-10-02T15:30:00Z,27.8888,-97.5696,0.0,7.5,1111122 
TCOON,ioos:station:TCOON:042:1,2012-10-02T16:00:00Z,27.8888,-97.5696,0.0,7.8,1111122 
TCOON,ioos:station:TCOON:042:1,2012-10-02T16:30:00Z,27.8888,-97.5696,0.0,7.6,1111122 
TCOON,ioos:station:TCOON:042:1,2012-10-02T17:30:00Z,27.8888,-97.5696,0.0,7.5,1111122 
TCOON,ioos:station:TCOON:042:1,2012-10-02T18:00:00Z,27.8888,-97.5696,0.0,7.7,1111122 
TCOON,ioos:station:TCOON:042:1,2012-10-02T19:30:00Z,27.8888,-97.5696,0.0,7.9,1111122 
TCOON,ioos:station:TCOON:042:1,2012-10-02T20:00:00Z,27.8888,-97.5696,0.0,8.2,1111122 
TCOON,ioos:station:TCOON:042:1,2012-10-02T20:30:00Z,27.8888,-97.5696,0.0,8.2,1111122 
TCOON,ioos:station:TCOON:042:1,2012-10-02T21:00:00Z,27.8888,-97.5696,0.0,8.4,1111122 
TCOON,ioos:station:TCOON:042:1,2012-10-02T21:30:00Z,27.8888,-97.5696,0.0,8.1,1111122 
TCOON,ioos:station:TCOON:042:1,2012-10-02T22:30:00Z,27.8888,-97.5696,0.0,7.3,1111122 
TCOON,ioos:station:TCOON:042:1,2012-10-02T23:00:00Z,27.8888,-97.5696,0.0,7.4,1111122 
TCOON,ioos:station:TCOON:042:1,2012-10-03T00:00:00Z,27.8888,-97.5696,0.0,7.0,1111122 
TCOON,ioos:station:TCOON:042:1,2012-10-03T00:30:00Z,27.8888,-97.5696,0.0,7.2,1111122 
TCOON,ioos:station:TCOON:042:1,2012-10-03T01:00:00Z,27.8888,-97.5696,0.0,7.7,1111122 
TCOON,ioos:station:TCOON:042:1,2012-10-03T01:30:00Z,27.8888,-97.5696,0.0,7.7,1111122 
TCOON,ioos:station:TCOON:042:1,2012-10-03T02:00:00Z,27.8888,-97.5696,0.0,7.9,1111122 
TCOON,ioos:station:TCOON:042:1,2012-10-03T03:00:00Z,27.8888,-97.5696,0.0,8.9,1111122 
TCOON,ioos:station:TCOON:042:1,2012-10-03T03:30:00Z,27.8888,-97.5696,0.0,9.0,1111122 
TCOON,ioos:station:TCOON:042:1,2012-10-03T04:00:00Z,27.8888,-97.5696,0.0,8.9,1111122 
TCOON,ioos:station:TCOON:042:1,2012-10-03T04:30:00Z,27.8888,-97.5696,0.0,8.9,1111122 
TCOON,ioos:station:TCOON:042:1,2012-10-03T05:00:00Z,27.8888,-97.5696,0.0,8.9,1111122 
TCOON,ioos:station:TCOON:042:1,2012-10-03T05:30:00Z,27.8888,-97.5696,0.0,9.0,1111122 
TCOON,ioos:station:TCOON:042:1,2012-10-03T06:00:00Z,27.8888,-97.5696,0.0,9.1,1111122 
TCOON,ioos:station:TCOON:042:1,2012-10-03T08:00:00Z,27.8888,-97.5696,0.0,9.4,1111122 
TCOON,ioos:station:TCOON:042:1,2012-10-03T08:30:00Z,27.8888,-97.5696,0.0,9.5,1111122 
TCOON,ioos:station:TCOON:042:1,2012-10-03T09:00:00Z,27.8888,-97.5696,0.0,9.6,1111122 
TCOON,ioos:station:TCOON:042:1,2012-10-03T09:30:00Z,27.8888,-97.5696,0.0,9.7,1111122 
TCOON,ioos:station:TCOON:042:1,2012-10-03T10:00:00Z,27.8888,-97.5696,0.0,9.8,1111122 
TCOON,ioos:station:TCOON:042:1,2012-10-03T10:30:00Z,27.8888,-97.5696,0.0,9.9,1111122 
TCOON,ioos:station:TCOON:042:1,2012-10-03T11:30:00Z,27.8888,-97.5696,0.0,10.0,1111122 
TCOON,ioos:station:TCOON:042:1,2012-10-03T12:00:00Z,27.8888,-97.5696,0.0,10.0,1111122 
TCOON,ioos:station:TCOON:042:1,2012-10-03T12:30:00Z,27.8888,-97.5696,0.0,10.0,1111122 
TCOON,ioos:station:TCOON:042:1,2012-10-03T13:00:00Z,27.8888,-97.5696,0.0,10.0,1111122 
TCOON,ioos:station:TCOON:042:1,2012-10-03T13:30:00Z,27.8888,-97.5696,0.0,10.1,1111122 
TCOON,ioos:station:TCOON:042:1,2012-10-03T14:00:00Z,27.8888,-97.5696,0.0,10.1,1111122 
TCOON,ioos:station:TCOON:042:1,2012-10-03T15:00:00Z,27.8888,-97.5696,0.0,10.0,1111122 
TCOON,ioos:station:TCOON:042:1,2012-10-03T15:30:00Z,27.8888,-97.5696,0.0,10.0,1111122 
TCOON,ioos:station:TCOON:042:1,2012-10-03T16:00:00Z,27.8888,-97.5696,0.0,9.9,1111122 
TCOON,ioos:station:TCOON:042:1,2012-10-03T17:00:00Z,27.8888,-97.5696,0.0,9.9,1111122 
TCOON,ioos:station:TCOON:042:1,2012-10-03T17:30:00Z,27.8888,-97.5696,0.0,10.0,1111122 
TCOON,ioos:station:TCOON:042:1,2012-10-03T18:00:00Z,27.8888,-97.5696,0.0,10.0,1111122 
TCOON,ioos:station:TCOON:042:1,2012-10-03T19:00:00Z,27.8888,-97.5696,0.0,11.2,1111122 
TCOON,ioos:station:TCOON:042:1,2012-10-03T19:30:00Z,27.8888,-97.5696,0.0,10.9,1111122 
TCOON,ioos:station:TCOON:042:1,2012-10-03T20:00:00Z,27.8888,-97.5696,0.0,10.3,1111122 
TCOON,ioos:station:TCOON:042:1,2012-10-03T20:30:00Z,27.8888,-97.5696,0.0,10.2,1111122 
TCOON,ioos:station:TCOON:042:1,2012-10-03T21:00:00Z,27.8888,-97.5696,0.0,10.4,1111122 
TCOON,ioos:station:TCOON:042:1,2012-10-03T22:30:00Z,27.8888,-97.5696,0.0,17.6,1111122 
TCOON,ioos:station:TCOON:042:1,2012-10-03T23:00:00Z,27.8888,-97.5696,0.0,18.6,1111122 
TCOON,ioos:station:TCOON:042:1,2012-10-03T23:30:00Z,27.8888,-97.5696,0.0,19.4,1111122 
TCOON,ioos:station:TCOON:042:1,2012-10-04T00:00:00Z,27.8888,-97.5696,0.0,19.6,1111122 
TCOON,ioos:station:TCOON:042:1,2012-10-04T00:30:00Z,27.8888,-97.5696,0.0,19.3,1111122 
TCOON,ioos:station:TCOON:042:1,2012-10-04T01:00:00Z,27.8888,-97.5696,0.0,19.5,1111122 
TCOON,ioos:station:TCOON:042:1,2012-10-04T02:00:00Z,27.8888,-97.5696,0.0,19.6,1111122 
TCOON,ioos:station:TCOON:042:1,2012-10-04T02:30:00Z,27.8888,-97.5696,0.0,19.5,1111122 
TCOON,ioos:station:TCOON:042:1,2012-10-04T03:00:00Z,27.8888,-97.5696,0.0,19.8,1111122 
TCOON,ioos:station:TCOON:042:1,2012-10-04T03:30:00Z,27.8888,-97.5696,0.0,19.7,1111122 
TCOON,ioos:station:TCOON:042:1,2012-10-04T04:00:00Z,27.8888,-97.5696,0.0,19.4,1111122 
TCOON,ioos:station:TCOON:042:1,2012-10-04T04:30:00Z,27.8888,-97.5696,0.0,19.2,1111122 
TCOON,ioos:station:TCOON:042:1,2012-10-04T05:00:00Z,27.8888,-97.5696,0.0,19.1,1111122 
TCOON,ioos:station:TCOON:042:1,2012-10-04T05:30:00Z,27.8888,-97.5696,0.0,19.8,1111122 
TCOON,ioos:station:TCOON:042:1,2012-10-04T06:00:00Z,27.8888,-97.5696,0.0,19.9,1111122 
TCOON,ioos:station:TCOON:042:1,2012-10-04T07:00:00Z,27.8888,-97.5696,0.0,18.8,1111122 
TCOON,ioos:station:TCOON:042:1,2012-10-04T08:30:00Z,27.8888,-97.5696,0.0,19.3,1111122 
TCOON,ioos:station:TCOON:042:1,2012-10-04T09:30:00Z,27.8888,-97.5696,0.0,20.0,1111122 
TCOON,ioos:station:TCOON:042:1,2012-10-04T10:00:00Z,27.8888,-97.5696,0.0,20.1,1111122 
TCOON,ioos:station:TCOON:042:1,2012-10-04T10:30:00Z,27.8888,-97.5696,0.0,20.2,1111122 
TCOON,ioos:station:TCOON:042:1,2012-10-04T11:00:00Z,27.8888,-97.5696,0.0,19.7,1111122 
TCOON,ioos:station:TCOON:042:1,2012-10-04T11:30:00Z,27.8888,-97.5696,0.0,20.3,1111122 
TCOON,ioos:station:TCOON:042:1,2012-10-04T12:00:00Z,27.8888,-97.5696,0.0,20.2,1111122 
TCOON,ioos:station:TCOON:042:1,2012-10-04T12:30:00Z,27.8888,-97.5696,0.0,19.9,1111122 
TCOON,ioos:station:TCOON:042:1,2012-10-04T13:00:00Z,27.8888,-97.5696,0.0,19.9,1111122 
TCOON,ioos:station:TCOON:042:1,2012-10-04T13:30:00Z,27.8888,-97.5696,0.0,19.9,1111122 
TCOON,ioos:station:TCOON:042:1,2012-10-04T14:00:00Z,27.8888,-97.5696,0.0,19.9,1111122 
TCOON,ioos:station:TCOON:042:1,2012-10-04T14:30:00Z,27.8888,-97.5696,0.0,19.9,1111122 
TCOON,ioos:station:TCOON:042:1,2012-10-04T15:30:00Z,27.8888,-97.5696,0.0,18.8,1111122 
TCOON,ioos:station:TCOON:042:1,2012-10-04T16:30:00Z,27.8888,-97.5696,0.0,18.2,1111122 
TCOON,ioos:station:TCOON:042:1,2012-10-04T17:00:00Z,27.8888,-97.5696,0.0,18.9,1111122 
TCOON,ioos:station:TCOON:042:1,2012-10-04T17:30:00Z,27.8888,-97.5696,0.0,18.9,1111122 
TCOON,ioos:station:TCOON:042:1,2012-10-04T18:00:00Z,27.8888,-97.5696,0.0,19.5,1111122 
TCOON,ioos:station:TCOON:042:1,2012-10-04T19:00:00Z,27.8888,-97.5696,0.0,20.1,1111122 
TCOON,ioos:station:TCOON:042:1,2012-10-04T19:30:00Z,27.8888,-97.5696,0.0,20.7,1111122 
TCOON,ioos:station:TCOON:042:1,2012-10-04T20:00:00Z,27.8888,-97.5696,0.0,20.9,1111122 
TCOON,ioos:station:TCOON:042:1,2012-10-04T20:30:00Z,27.8888,-97.5696,0.0,21.3,1111122 
TCOON,ioos:station:TCOON:042:1,2012-10-04T21:00:00Z,27.8888,-97.5696,0.0,21.7,1111122 
TCOON,ioos:station:TCOON:042:1,2012-10-04T21:30:00Z,27.8888,-97.5696,0.0,21.7,1111122 
TCOON,ioos:station:TCOON:042:1,2012-10-04T22:30:00Z,27.8888,-97.5696,0.0,21.5,1111122 
TCOON,ioos:station:TCOON:042:1,2012-10-04T23:00:00Z,27.8888,-97.5696,0.0,21.3,1111122 
TCOON,ioos:station:TCOON:042:1,2012-10-04T23:30:00Z,27.8888,-97.5696,0.0,21.6,1111122 
TCOON,ioos:station:TCOON:042:1,2012-10-05T01:30:00Z,27.8888,-97.5696,0.0,21.2,1111122 
TCOON,ioos:station:TCOON:042:1,2012-10-05T02:00:00Z,27.8888,-97.5696,0.0,21.2,1111122 
TCOON,ioos:station:TCOON:042:1,2012-10-05T02:30:00Z,27.8888,-97.5696,0.0,21.1,1111122 
TCOON,ioos:station:TCOON:042:1,2012-10-05T03:00:00Z,27.8888,-97.5696,0.0,21.0,1111122 
TCOON,ioos:station:TCOON:042:1,2012-10-05T03:30:00Z,27.8888,-97.5696,0.0,21.0,1111122 
TCOON,ioos:station:TCOON:042:1,2012-10-05T04:00:00Z,27.8888,-97.5696,0.0,21.2,1111122 
TCOON,ioos:station:TCOON:042:1,2012-10-05T05:00:00Z,27.8888,-97.5696,0.0,21.2,1111122 
TCOON,ioos:station:TCOON:042:1,2012-10-05T06:00:00Z,27.8888,-97.5696,0.0,18.2,1111122 
TCOON,ioos:station:TCOON:042:1,2012-10-05T06:30:00Z,27.8888,-97.5696,0.0,16.6,1111122 
TCOON,ioos:station:TCOON:042:1,2012-10-05T07:30:00Z,27.8888,-97.5696,0.0,13.6,1111122 
TCOON,ioos:station:TCOON:042:1,2012-10-05T09:30:00Z,27.8888,-97.5696,0.0,14.1,1111122 
TCOON,ioos:station:TCOON:042:1,2012-10-05T10:30:00Z,27.8888,-97.5696,0.0,14.4,1111122 
TCOON,ioos:station:TCOON:042:1,2012-10-05T11:00:00Z,27.8888,-97.5696,0.0,14.4,1111122 
TCOON,ioos:station:TCOON:042:1,2012-10-05T11:30:00Z,27.8888,-97.5696,0.0,15.1,1111122 
TCOON,ioos:station:TCOON:042:1,2012-10-05T12:00:00Z,27.8888,-97.5696,0.0,15.4,1111122 
TCOON,ioos:station:TCOON:042:1,2012-10-05T12:30:00Z,27.8888,-97.5696,0.0,15.7,1111122 
TCOON,ioos:station:TCOON:042:1,2012-10-05T13:00:00Z,27.8888,-97.5696,0.0,15.8,1111122 
TCOON,ioos:station:TCOON:042:1,2012-10-05T14:00:00Z,27.8888,-97.5696,0.0,15.9,1111122 
TCOON,ioos:station:TCOON:042:1,2012-10-05T14:30:00Z,27.8888,-97.5696,0.0,15.8,1111122 
TCOON,ioos:station:TCOON:042:1,2012-10-05T15:00:00Z,27.8888,-97.5696,0.0,15.8,1111122 
TCOON,ioos:station:TCOON:042:1,2012-10-05T16:00:00Z,27.8888,-97.5696,0.0,15.9,1111122 
TCOON,ioos:station:TCOON:042:1,2012-10-05T16:30:00Z,27.8888,-97.5696,0.0,15.4,1111122 
TCOON,ioos:station:TCOON:042:1,2012-10-05T17:00:00Z,27.8888,-97.5696,0.0,14.9,1111122 
TCOON,ioos:station:TCOON:042:1,2012-10-05T17:30:00Z,27.8888,-97.5696,0.0,15.2,1111122 
TCOON,ioos:station:TCOON:042:1,2012-10-05T18:00:00Z,27.8888,-97.5696,0.0,15.1,1111122 
TCOON,ioos:station:TCOON:042:1,2012-10-05T19:00:00Z,27.8888,-97.5696,0.0,15.4,1111122 
TCOON,ioos:station:TCOON:042:1,2012-10-05T20:00:00Z,27.8888,-97.5696,0.0,19.3,1111122 
TCOON,ioos:station:TCOON:042:1,2012-10-05T21:00:00Z,27.8888,-97.5696,0.0,22.0,1111122 
TCOON,ioos:station:TCOON:042:1,2012-10-05T21:30:00Z,27.8888,-97.5696,0.0,22.5,1111122 
TCOON,ioos:station:TCOON:042:1,2012-10-05T22:00:00Z,27.8888,-97.5696,0.0,23.2,1111122 
TCOON,ioos:station:TCOON:042:1,2012-10-05T22:30:00Z,27.8888,-97.5696,0.0,23.8,1111122 
TCOON,ioos:station:TCOON:042:1,2012-10-05T23:30:00Z,27.8888,-97.5696,0.0,26.3,1111122 
TCOON,ioos:station:TCOON:042:1,2012-10-06T00:00:00Z,27.8888,-97.5696,0.0,25.2,1111122 
TCOON,ioos:station:TCOON:042:1,2012-10-06T00:30:00Z,27.8888,-97.5696,0.0,25.7,1111122 
TCOON,ioos:station:TCOON:042:1,2012-10-06T01:00:00Z,27.8888,-97.5696,0.0,25.7,1111122 
TCOON,ioos:station:TCOON:042:1,2012-10-06T01:30:00Z,27.8888,-97.5696,0.0,25.2,1111122 
TCOON,ioos:station:TCOON:042:1,2012-10-06T02:30:00Z,27.8888,-97.5696,0.0,22.7,1111122 
TCOON,ioos:station:TCOON:042:1,2012-10-06T03:00:00Z,27.8888,-97.5696,0.0,21.1,1111122 
TCOON,ioos:station:TCOON:042:1,2012-10-06T03:30:00Z,27.8888,-97.5696,0.0,18.9,1111122 
TCOON,ioos:station:TCOON:042:1,2012-10-06T04:00:00Z,27.8888,-97.5696,0.0,17.6,1111122 
TCOON,ioos:station:TCOON:042:1,2012-10-06T04:30:00Z,27.8888,-97.5696,0.0,17.2,1111122 
TCOON,ioos:station:TCOON:042:1,2012-10-06T05:30:00Z,27.8888,-97.5696,0.0,16.9,1111122 
TCOON,ioos:station:TCOON:042:1,2012-10-06T06:00:00Z,27.8888,-97.5696,0.0,16.6,1111122 
TCOON,ioos:station:TCOON:042:1,2012-10-06T06:30:00Z,27.8888,-97.5696,0.0,16.5,1111122 
TCOON,ioos:station:TCOON:042:1,2012-10-06T07:00:00Z,27.8888,-97.5696,0.0,16.4,1111122 
TCOON,ioos:station:TCOON:042:1,2012-10-06T07:30:00Z,27.8888,-97.5696,0.0,16.3,1111122 
TCOON,ioos:station:TCOON:042:1,2012-10-06T08:30:00Z,27.8888,-97.5696,0.0,16.3,1111122 
TCOON,ioos:station:TCOON:042:1,2012-10-06T09:00:00Z,27.8888,-97.5696,0.0,16.2,1111122 
TCOON,ioos:station:TCOON:042:1,2012-10-06T09:30:00Z,27.8888,-97.5696,0.0,16.1,1111122 
TCOON,ioos:station:TCOON:042:1,2012-10-06T10:00:00Z,27.8888,-97.5696,0.0,16.4,1111122 
TCOON,ioos:station:TCOON:042:1,2012-10-06T10:30:00Z,27.8888,-97.5696,0.0,16.3,1111122 
TCOON,ioos:station:TCOON:042:1,2012-10-06T11:00:00Z,27.8888,-97.5696,0.0,16.3,1111122 
TCOON,ioos:station:TCOON:042:1,2012-10-06T11:30:00Z,27.8888,-97.5696,0.0,16.3,1111122 
TCOON,ioos:station:TCOON:042:1,2012-10-06T12:00:00Z,27.8888,-97.5696,0.0,15.8,1111122 
TCOON,ioos:station:TCOON:042:1,2012-10-06T12:30:00Z,27.8888,-97.5696,0.0,16.3,1111122 
TCOON,ioos:station:TCOON:042:1,2012-10-06T13:00:00Z,27.8888,-97.5696,0.0,16.3,1111122 
TCOON,ioos:station:TCOON:042:1,2012-10-06T13:30:00Z,27.8888,-97.5696,0.0,16.2,1111122 
TCOON,ioos:station:TCOON:042:1,2012-10-06T14:00:00Z,27.8888,-97.5696,0.0,16.3,1111122 
TCOON,ioos:station:TCOON:042:1,2012-10-06T14:30:00Z,27.8888,-97.5696,0.0,16.4,1111122 
TCOON,ioos:station:TCOON:042:1,2012-10-06T15:00:00Z,27.8888,-97.5696,0.0,16.3,1111122 
TCOON,ioos:station:TCOON:042:1,2012-10-06T16:00:00Z,27.8888,-97.5696,0.0,16.0,1111122 
TCOON,ioos:station:TCOON:042:1,2012-10-06T17:30:00Z,27.8888,-97.5696,0.0,16.0,1111122 
TCOON,ioos:station:TCOON:042:1,2012-10-06T19:30:00Z,27.8888,-97.5696,0.0,18.1,1111122 
TCOON,ioos:station:TCOON:042:1,2012-10-06T20:00:00Z,27.8888,-97.5696,0.0,18.9,1111122 
TCOON,ioos:station:TCOON:042:1,2012-10-06T20:30:00Z,27.8888,-97.5696,0.0,18.6,1111122 
TCOON,ioos:station:TCOON:042:1,2012-10-06T21:30:00Z,27.8888,-97.5696,0.0,21.5,1111122 
TCOON,ioos:station:TCOON:042:1,2012-10-06T22:00:00Z,27.8888,-97.5696,0.0,22.3,1111122 
TCOON,ioos:station:TCOON:042:1,2012-10-06T22:30:00Z,27.8888,-97.5696,0.0,23.3,1111122 
TCOON,ioos:station:TCOON:042:1,2012-10-06T23:00:00Z,27.8888,-97.5696,0.0,25.6,1111122 
TCOON,ioos:station:TCOON:042:1,2012-10-06T23:30:00Z,27.8888,-97.5696,0.0,25.9,1111122 
TCOON,ioos:station:TCOON:042:1,2012-10-07T00:00:00Z,27.8888,-97.5696,0.0,25.3,1111122 
TCOON,ioos:station:TCOON:042:1,2012-10-07T00:30:00Z,27.8888,-97.5696,0.0,24.9,1111122 
TCOON,ioos:station:TCOON:042:1,2012-10-07T01:30:00Z,27.8888,-97.5696,0.0,23.8,1111122 
TCOON,ioos:station:TCOON:042:1,2012-10-07T02:00:00Z,27.8888,-97.5696,0.0,22.2,1111122 
TCOON,ioos:station:TCOON:042:1,2012-10-07T02:30:00Z,27.8888,-97.5696,0.0,21.6,1111122 
TCOON,ioos:station:TCOON:042:1,2012-10-07T03:30:00Z,27.8888,-97.5696,0.0,18.6,1111122 
TCOON,ioos:station:TCOON:042:1,2012-10-07T04:00:00Z,27.8888,-97.5696,0.0,16.1,1111122 
TCOON,ioos:station:TCOON:042:1,2012-10-07T04:30:00Z,27.8888,-97.5696,0.0,15.5,1111122 
TCOON,ioos:station:TCOON:042:1,2012-10-07T05:00:00Z,27.8888,-97.5696,0.0,15.9,1111122 
TCOON,ioos:station:TCOON:042:1,2012-10-07T05:30:00Z,27.8888,-97.5696,0.0,15.5,1111122 
TCOON,ioos:station:TCOON:042:1,2012-10-07T06:00:00Z,27.8888,-97.5696,0.0,15.4,1111122 
TCOON,ioos:station:TCOON:042:1,2012-10-07T08:00:00Z,27.8888,-97.5696,0.0,14.5,1111122 
TCOON,ioos:station:TCOON:042:1,2012-10-07T08:30:00Z,27.8888,-97.5696,0.0,15.1,1111122 
TCOON,ioos:station:TCOON:042:1,2012-10-07T09:00:00Z,27.8888,-97.5696,0.0,15.3,1111122 
TCOON,ioos:station:TCOON:042:1,2012-10-07T09:30:00Z,27.8888,-97.5696,0.0,15.8,1111122 
TCOON,ioos:station:TCOON:042:1,2012-10-07T10:00:00Z,27.8888,-97.5696,0.0,16.6,1111122 
TCOON,ioos:station:TCOON:042:1,2012-10-07T11:00:00Z,27.8888,-97.5696,0.0,20.1,1111122 
TCOON,ioos:station:TCOON:042:1,2012-10-07T11:30:00Z,27.8888,-97.5696,0.0,20.2,1111122 
TCOON,ioos:station:TCOON:042:1,2012-10-07T12:00:00Z,27.8888,-97.5696,0.0,20.1,1111122 
TCOON,ioos:station:TCOON:042:1,2012-10-07T14:00:00Z,27.8888,-97.5696,0.0,26.5,1111122 
TCOON,ioos:station:TCOON:042:1,2012-10-07T15:00:00Z,27.8888,-97.5696,0.0,25.0,1111122 
TCOON,ioos:station:TCOON:042:1,2012-10-07T16:00:00Z,27.8888,-97.5696,0.0,25.8,1111122 
TCOON,ioos:station:TCOON:042:1,2012-10-07T17:30:00Z,27.8888,-97.5696,0.0,27.0,1111122 
TCOON,ioos:station:TCOON:042:1,2012-10-07T19:30:00Z,27.8888,-97.5696,0.0,26.0,1111122 
TCOON,ioos:station:TCOON:042:1,2012-10-07T20:00:00Z,27.8888,-97.5696,0.0,27.3,1111122 
TCOON,ioos:station:TCOON:042:1,2012-10-07T22:30:00Z,27.8888,-97.5696,0.0,25.9,1111122 
TCOON,ioos:station:TCOON:042:1,2012-10-07T23:30:00Z,27.8888,-97.5696,0.0,25.7,1111122 
TCOON,ioos:station:TCOON:042:1,2012-10-08T00:00:00Z,27.8888,-97.5696,0.0,26.3,1111122 
TCOON,ioos:station:TCOON:042:1,2012-10-08T01:30:00Z,27.8888,-97.5696,0.0,23.6,1111122 
TCOON,ioos:station:TCOON:042:1,2012-10-08T02:30:00Z,27.8888,-97.5696,0.0,20.3,1111122 
TCOON,ioos:station:TCOON:042:1,2012-10-08T03:30:00Z,27.8888,-97.5696,0.0,18.5,1111122 
TCOON,ioos:station:TCOON:042:1,2012-10-08T05:30:00Z,27.8888,-97.5696,0.0,16.5,1111122 
TCOON,ioos:station:TCOON:042:1,2012-10-08T07:30:00Z,27.8888,-97.5696,0.0,16.7,1111122 
TCOON,ioos:station:TCOON:042:1,2012-10-08T08:30:00Z,27.8888,-97.5696,0.0,17.2,1111122 
TCOON,ioos:station:TCOON:042:1,2012-10-08T09:00:00Z,27.8888,-97.5696,0.0,15.9,1111122 
TCOON,ioos:station:TCOON:042:1,2012-10-08T11:30:00Z,27.8888,-97.5696,0.0,16.7,1111122 
TCOON,ioos:station:TCOON:042:1,2012-10-08T12:00:00Z,27.8888,-97.5696,0.0,17.7,1111122 
TCOON,ioos:station:TCOON:042:1,2012-10-08T13:00:00Z,27.8888,-97.5696,0.0,17.6,1111122 
TCOON,ioos:station:TCOON:042:1,2012-10-08T13:30:00Z,27.8888,-97.5696,0.0,17.6,1111122 
TCOON,ioos:station:TCOON:042:1,2012-10-08T14:00:00Z,27.8888,-97.5696,0.0,17.5,1111122 
TCOON,ioos:station:TCOON:042:1,2012-10-08T15:00:00Z,27.8888,-97.5696,0.0,17.7,1111122 
TCOON,ioos:station:TCOON:042:1,2012-10-08T16:30:00Z,27.8888,-97.5696,0.0,17.5,1111122 
TCOON,ioos:station:TCOON:042:1,2012-10-08T17:00:00Z,27.8888,-97.5696,0.0,17.9,1111122 
TCOON,ioos:station:TCOON:042:1,2012-10-08T18:00:00Z,27.8888,-97.5696,0.0,17.8,1111122 
TCOON,ioos:station:TCOON:042:1,2012-10-08T19:30:00Z,27.8888,-97.5696,0.0,17.5,1111122 
TCOON,ioos:station:TCOON:042:1,2012-10-08T20:00:00Z,27.8888,-97.5696,0.0,18.0,1111122 
TCOON,ioos:station:TCOON:042:1,2012-10-08T20:30:00Z,27.8888,-97.5696,0.0,18.0,1111122 
TCOON,ioos:station:TCOON:042:1,2012-10-08T21:00:00Z,27.8888,-97.5696,0.0,17.6,1111122 
TCOON,ioos:station:TCOON:042:1,2012-10-08T22:00:00Z,27.8888,-97.5696,0.0,17.4,1111122 
TCOON,ioos:station:TCOON:042:1,2012-10-08T22:30:00Z,27.8888,-97.5696,0.0,17.6,1111122 
TCOON,ioos:station:TCOON:042:1,2012-10-08T23:00:00Z,27.8888,-97.5696,0.0,16.7,1111122 
TCOON,ioos:station:TCOON:042:1,2012-10-09T00:00:00Z,27.8888,-97.5696,0.0,16.4,1111122 
TCOON,ioos:station:TCOON:042:1,2012-10-09T01:00:00Z,27.8888,-97.5696,0.0,16.0,1111122 
TCOON,ioos:station:TCOON:042:1,2012-10-09T01:30:00Z,27.8888,-97.5696,0.0,16.3,1111122 
TCOON,ioos:station:TCOON:042:1,2012-10-09T02:00:00Z,27.8888,-97.5696,0.0,16.6,1111122 
TCOON,ioos:station:TCOON:042:1,2012-10-09T03:00:00Z,27.8888,-97.5696,0.0,16.7,1111122 
TCOON,ioos:station:TCOON:042:1,2012-10-09T03:30:00Z,27.8888,-97.5696,0.0,16.5,1111122 